{"data":{"norad_id":59965,"epoch":"2026-05-25T03:30:06.299136Z","epoch_age_seconds":72632,"freshness":"FRESH","line1":"1 59965U 24108A   26145.14590624  .00004155  00000+0  17752-3 0  9997","line2":"2 59965  97.5292 299.8763 0010268 327.6661  32.3945 15.23391038109081","mean_motion":15.23391038,"eccentricity":0.0010268,"inclination_deg":97.5292,"raan_deg":299.8763,"arg_perigee_deg":327.6661,"mean_anomaly_deg":32.3945,"bstar":0.00017752,"rev_number":10908,"period_min":94.525959788402,"perigee_km":488.56311413534,"apogee_km":502.67906374679,"semimajor_km":6873.7580889411,"source":"CELESTRAK","updated_at":"2026-05-25T13:38:01.783920Z"}}